Wind_Speed
44 44 45 44 45 46 47 49 50 51 52 53 53 54 53 53 53 53 52 52 53 52 52 52 51 50 50 50 49 48 48 47 46 45 45 45 46 45 45 45 46 45 45
42 43 43 43 43 44 45 46 47 49 50 51 51 52 53 54 53 53 53 52 53 53 53 53 52 51 50 50 49 49 49 48 47 46 46 46 46 46 46 46 46 45 45
39 39 40 41 41 41 43 44 44 45 47 49 50 51 51 52 53 54 53 53 53 53 53 53 53 52 51 50 50 50 50 49 48 48 46 46 46 46 46 46 46 46 46
37 37 37 38 39 39 40 41 42 42 44 45 47 48 49 50 51 52 54 54 54 53 53 53 53 53 52 51 50 50 49 49 49 48 48 47 46 46 46 46 46 46 47
36 36 36 37 38 38 38 39 40 40 42 43 44 45 46 47 48 50 52 53 54 54 53 53 53 53 53 51 50 50 50 50 49 48 48 48 48 48 47 47 47 47 47
35 35 35 36 36 37 38 38 38 38 39 40 42 43 44 46 46 47 48 49 50 52 52 52 52 52 51 52 51 50 49 48 48 48 48 49 49 49 48 48 48 48 48
35 34 34 34 34 35 36 37 37 37 38 38 39 41 42 44 45 45 45 46 47 49 50 50 49 49 49 49 49 49 48 48 47 47 47 48 48 48 48 48 49 48 48
32 32 32 32 32 33 34 35 36 37 37 37 37 38 40 41 42 42 43 43 44 44 45 47 47 46 46 46 46 47 48 48 48 48 47 48 48 49 49 49 49 48 48
30 31 31 31 31 31 32 33 34 35 36 36 36 37 38 39 40 41 40 40 41 41 43 44 45 45 45 45 45 46 46 47 47 47 47 47 47 48 49 49 49 49 48
30 30 30 30 30 30 30 31 32 33 34 34 35 35 37 38 39 40 40 40 41 41 42 42 43 43 43 44 44 44 44 45 45 46 46 46 46 47 47 47 47 48 48
29 30 30 30 29 29 29 29 30 31 32 33 34 34 35 36 37 38 39 39 39 40 40 41 41 42 42 43 43 43 43 43 44 44 44 45 45 46 46 46 47 47 47
29 29 29 29 29 29 28 28 28 29 30 31 32 32 33 34 35 36 37 37 37 38 38 39 39 40 41 41 41 42 41 41 42 43 43 43 43 43 44 44 45 46 46
28 28 29 29 28 28 28 27 28 28 29 30 30 30 31 31 32 33 34 35 36 36 37 37 37 38 39 39 40 40 40 40 41 41 41 42 42 42 42 42 43 44 45
28 28 27 27 27 27 27 27 27 28 28 29 29 30 30 31 32 32 32 33 34 35 37 37 37 37 38 38 38 38 39 39 39 40 40 41 41 42 42 43 43 44 44
27 27 28 28 27 27 27 26 27 27 27 28 28 29 30 30 30 31 31 32 33 34 35 36 36 36 36 37 38 38 38 39 39 39 39 40 41 41 42 43 43 43 42
27 27 28 28 28 27 27 27 27 27 27 28 28 29 30 30 30 31 32 32 32 33 34 34 35 35 36 36 37 38 38 39 39 40 40 40 41 41 42 41 41 41 41
27 27 28 28 28 27 28 27 27 27 27 28 29 29 30 30 30 30 31 31 32 32 33 34 35 36 36 36 36 36 37 38 38 38 39 39 40 40 40 40 40 40 40
28 28 28 28 28 28 29 28 28 28 28 28 29 29 29 30 30 30 30 30 31 32 32 33 34 35 35 36 36 36 36 37 38 38 38 38 38 38 38 39 40 40 40
27 28 28 29 29 29 29 29 28 28 28 29 29 30 30 30 30 31 31 31 31 31 32 33 33 34 35 35 36 37 37 37 37 37 37 37 38 38 39 39 39 40 40
26 27 28 29 30 30 30 29 29 29 29 29 29 29 30 30 31 31 31 31 31 31 32 32 33 34 34 35 36 37 37 36 36 36 36 37 38 38 39 39 39 39 40
25 26 28 29 29 30 30 30 30 30 30 30 30 30 30 30 30 30 30 31 31 32 32 33 34 34 34 35 35 35 35 35 35 35 36 36 37 38 38 39 39 40 40
25 26 27 28 29 30 30 30 31 31 31 30 30 30 31 31 31 31 31 31 31 32 32 33 33 34 34 34 34 34 34 34 35 35 36 36 37 37 38 38 39 40 40
25 25 25 26 27 28 29 29 30 30 30 31 31 31 31 32 32 32 32 32 32 32 32 32 32 32 32 32 33 33 33 34 35 35 36 36 36 37 37 37 38 38 38
24 25 25 25 26 27 27 28 29 29 30 30 30 30 30 30 31 32 33 33 32 31 31 31 31 31 31 31 32 32 33 34 34 35 35 35 35 36 36 36 36 36 36
22 23 23 24 25 25 26 27 27 28 28 29 29 30 30 30 30 31 31 32 31 31 30 30 30 30 30 31 31 31 33 33 34 34 34 34 35 35 35 35 35 35 35
21 21 22 22 23 24 25 25 26 27 27 28 28 28 28 28 29 30 30 30 30 30 30 29 29 29 29 29 30 30 31 32 33 33 34 34 34 34 35 35 35 35 35
Wind_Direction
263 263 262 261 258 256 254 253 251 250 249 248 247 246 246 246 247 247 247 247 247 248 249 250 251 252 253 254 255 257 258 259 259 259 259 261 262 264 266 267 268 269 270
264 263 262 261 259 256 254 253 252 251 249 248 247 246 245 245 246 247 247 247 248 248 249 250 251 252 253 254 255 257 259 260 260 260 260 262 262 263 265 266 267 268 270
265 265 263 261 259 258 255 254 253 252 250 249 247 247 246 246 246 246 246 247 247 248 249 250 251 252 253 254 256 258 259 259 260 261 261 262 263 264 265 265 266 268 270
266 264 263 261 259 256 254 254 254 253 252 249 249 247 246 246 246 246 246 246 247 248 249 250 251 252 253 254 255 257 257 259 260 260 261 263 264 264 265 265 266 267 269
265 264 263 261 258 255 254 253 253 253 253 251 249 248 247 246 246 247 246 246 247 248 249 250 251 252 253 254 255 256 257 259 260 261 262 262 264 265 265 265 266 268 270
265 264 263 261 258 255 253 252 252 253 253 252 249 247 246 245 246 246 246 246 246 247 248 250 251 251 253 253 254 255 256 258 260 261 262 262 263 264 265 266 267 268 270
265 264 263 260 258 256 254 251 252 253 254 253 250 247 247 247 246 246 246 246 247 247 248 249 250 251 252 253 254 255 257 258 259 261 262 262 264 264 266 267 268 269 271
266 264 261 260 259 258 256 254 253 252 252 251 250 249 248 246 246 247 246 246 246 247 248 248 249 250 252 252 254 256 257 257 259 260 262 263 264 265 266 268 269 269 271
267 264 262 260 259 259 258 256 255 252 250 250 250 249 248 247 246 246 245 246 246 247 248 249 250 252 252 252 254 255 257 258 258 260 262 264 265 266 267 268 269 269 270
267 264 263 261 260 260 259 257 256 253 252 252 250 248 247 246 246 246 245 245 245 247 249 250 251 252 252 253 254 255 256 257 259 261 262 263 265 267 268 269 270 270 271
267 265 263 262 260 259 259 257 255 253 251 250 249 249 249 248 248 247 245 246 246 248 249 250 250 251 252 253 255 255 256 257 258 261 262 264 266 267 268 270 271 272 272
266 265 264 262 260 258 257 257 255 253 251 250 249 249 250 249 248 247 246 247 248 248 249 250 251 251 252 253 255 256 257 259 260 261 263 265 266 268 270 271 272 272 273
266 265 263 261 260 258 258 257 256 254 251 250 251 249 249 249 247 246 248 249 249 249 249 250 251 252 253 254 256 257 257 258 260 262 263 265 266 268 270 271 272 273 273
264 263 262 261 259 258 258 257 256 254 252 250 250 248 248 248 248 249 250 250 250 251 250 251 252 254 254 254 255 256 257 258 261 263 264 266 267 268 270 271 272 273 273
264 261 259 259 258 257 257 257 256 253 252 250 248 247 247 248 249 250 251 251 252 252 252 252 252 253 254 254 255 256 258 260 261 263 265 267 268 269 270 271 272 273 273
263 260 258 256 255 255 255 255 254 253 252 250 248 249 249 250 251 252 252 253 252 252 253 253 253 254 255 256 257 259 260 261 263 264 266 268 268 269 270 270 271 271 272
261 259 256 255 254 254 254 254 254 253 253 251 249 249 250 250 252 253 254 255 255 254 254 255 256 256 257 258 259 260 260 262 264 265 267 268 269 269 269 270 270 272 272
260 257 256 255 254 254 253 253 253 252 251 251 251 250 250 250 252 253 254 254 254 255 255 255 256 257 257 258 259 260 261 263 265 266 266 267 268 268 269 270 271 272 273
261 258 256 256 255 255 254 254 254 253 253 252 252 252 253 253 254 255 255 255 256 257 257 257 258 259 259 260 260 261 262 263 265 266 266 267 268 269 271 272 272 272 273
264 260 257 257 256 255 255 254 254 254 254 253 253 254 254 254 255 256 256 256 257 258 258 258 260 261 261 262 262 262 263 263 263 264 266 268 269 270 272 273 273 274 275
267 264 262 259 257 256 255 254 254 253 254 254 255 255 255 255 256 256 257 258 258 259 260 261 261 262 263 263 263 263 263 263 264 266 268 270 271 272 273 274 275 276 277
270 267 263 260 258 255 254 253 253 253 253 255 255 255 256 256 256 257 259 260 261 261 261 262 263 263 263 263 263 263 263 265 266 268 269 271 272 274 275 276 277 278 278
270 267 264 262 259 257 254 253 252 252 253 255 256 257 257 257 257 258 259 260 261 262 262 262 263 263 263 263 262 263 264 266 267 268 270 272 274 275 276 277 278 278 279
271 268 266 264 261 258 256 254 253 253 254 255 256 257 257 257 258 258 259 260 261 261 262 262 262 261 262 263 264 264 266 267 269 270 271 273 274 276 277 278 279 279 280
273 270 267 265 262 259 257 256 255 254 254 255 256 256 256 257 258 259 259 259 260 260 260 261 261 262 263 264 265 267 268 268 270 271 272 274 274 275 276 277 279 280 280
274 272 270 267 264 261 259 257 256 256 255 256 256 256 256 257 259 260 259 259 259 259 259 260 261 262 263 264 266 268 269 270 270 271 272 273 274 275 276 277 278 279 281
Height
5579 5579 5580 5581 5581 5583 5584 5586 5589 5592 5595 5599 5603 5608 5613 5618 5622 5627 5631 5636 5641 5645 5649 5653 5657 5660 5663 5666 5670 5672 5675 5678 5681 5684 5685 5686 5687 5688 5690 5691 5692 5692 5693
5566 5567 5567 5568 5569 5570 5572 5573 5575 5578 5581 5585 5589 5594 5599 5604 5608 5613 5618 5622 5627 5631 5635 5640 5644 5647 5650 5654 5657 5660 5662 5665 5668 5671 5672 5673 5675 5676 5677 5678 5679 5680 5681
5554 5555 5555 5556 5557 5558 5559 5561 5563 5565 5568 5572 5576 5580 5585 5590 5594 5599 5604 5609 5613 5618 5622 5626 5630 5634 5638 5641 5644 5647 5649 5652 5655 5657 5659 5661 5662 5663 5664 5666 5666 5667 5668
5543 5544 5544 5545 5546 5547 5548 5550 5552 5554 5557 5560 5563 5567 5572 5576 5580 5585 5590 5595 5599 5604 5608 5612 5617 5621 5624 5628 5631 5634 5636 5639 5641 5643 5646 5648 5649 5650 5651 5653 5654 5654 5655
5533 5533 5533 5534 5535 5536 5537 5539 5541 5543 5546 5548 5551 5555 5559 5563 5567 5571 5576 5581 5586 5590 5595 5599 5603 5607 5610 5614 5617 5620 5622 5625 5627 5629 5632 5634 5635 5636 5638 5639 5640 5641 5641
5522 5522 5523 5523 5524 5526 5527 5529 5531 5533 5535 5537 5539 5543 5546 5551 5555 5558 5562 5567 5572 5576 5581 5585 5589 5593 5596 5600 5603 5606 5609 5611 5614 5616 5618 5620 5622 5623 5624 5625 5626 5628 5629
5512 5512 5513 5513 5514 5515 5517 5518 5520 5523 5525 5526 5528 5531 5535 5539 5542 5546 5550 5554 5559 5563 5568 5572 5576 5579 5583 5586 5589 5592 5595 5597 5600 5603 5605 5606 5608 5610 5611 5612 5612 5613 5614
5502 5503 5503 5504 5505 5506 5507 5509 5510 5512 5514 5516 5519 5521 5524 5527 5531 5534 5538 5542 5547 5551 5555 5559 5563 5566 5569 5573 5576 5579 5581 5584 5587 5589 5592 5593 5594 5595 5596 5597 5598 5599 5599
5494 5494 5494 5495 5496 5497 5498 5499 5500 5502 5505 5507 5509 5512 5514 5517 5520 5524 5527 5531 5536 5540 5544 5547 5551 5554 5557 5561 5563 5566 5569 5571 5572 5575 5577 5579 5580 5581 5582 5583 5584 5584 5585
5486 5486 5486 5487 5488 5488 5489 5490 5492 5494 5496 5498 5500 5502 5505 5507 5510 5513 5517 5521 5525 5529 5533 5536 5539 5542 5545 5547 5550 5553 5556 5558 5560 5562 5564 5565 5566 5567 5568 5569 5569 5570 5570
5477 5478 5478 5478 5479 5480 5481 5482 5483 5485 5487 5489 5491 5494 5496 5499 5501 5504 5507 5511 5515 5518 5521 5524 5527 5530 5533 5535 5538 5541 5543 5546 5548 5549 5551 5552 5553 5554 5555 5555 5555 5555 5556
5469 5469 5470 5470 5471 5472 5474 5475 5476 5477 5479 5481 5483 5485 5488 5490 5492 5495 5498 5501 5504 5508 5511 5513 5516 5518 5521 5524 5526 5529 5531 5533 5535 5537 5538 5540 5541 5541 5542 5542 5542 5542 5542
5460 5461 5461 5462 5463 5464 5466 5467 5468 5469 5471 5473 5475 5477 5480 5482 5484 5486 5489 5492 5494 5497 5500 5503 5505 5508 5510 5512 5515 5517 5519 5521 5523 5525 5526 5527 5528 5529 5529 5529 5529 5528 5528
5452 5452 5453 5454 5455 5456 5458 5459 5460 5462 5463 5465 5467 5469 5471 5474 5476 5478 5480 5483 5485 5487 5490 5492 5495 5497 5499 5502 5504 5506 5507 5509 5511 5513 5514 5515 5516 5516 5517 5517 5516 5516 5516
5443 5444 5445 5446 5447 5449 5450 5451 5452 5454 5455 5457 5459 5461 5463 5465 5467 5469 5471 5473 5476 5478 5480 5482 5484 5487 5489 5491 5493 5495 5496 5498 5499 5501 5502 5503 5503 5504 5504 5504 5504 5504 5504
5435 5436 5437 5438 5439 5441 5442 5443 5444 5446 5447 5449 5451 5453 5455 5457 5459 5461 5463 5464 5466 5468 5470 5472 5474 5476 5478 5480 5482 5484 5485 5486 5488 5489 5490 5491 5491 5492 5492 5492 5492 5492 5492
5426 5427 5428 5429 5431 5433 5434 5436 5437 5439 5440 5441 5443 5445 5447 5449 5450 5452 5454 5455 5457 5459 5460 5462 5464 5466 5468 5469 5471 5473 5474 5475 5476 5477 5478 5479 5479 5479 5480 5480 5480 5480 5480
5417 5418 5420 5421 5423 5424 5426 5427 5429 5431 5432 5433 5435 5437 5438 5440 5442 5443 5445 5446 5448 5449 5451 5452 5454 5456 5457 5459 5460 5462 5463 5464 5465 5465 5466 5467 5467 5468 5468 5468 5468 5468 5467
5409 5410 5411 5412 5414 5415 5417 5419 5420 5422 5424 5425 5427 5428 5430 5431 5433 5434 5436 5437 5438 5440 5441 5442 5444 5445 5447 5448 5449 5450 5452 5453 5453 5454 5455 5455 5456 5456 5456 5456 5456 5456 5455
5400 5401 5402 5404 5405 5407 5408 5410 5411 5413 5415 5417 5418 5419 5421 5422 5424 5425 5426 5427 5429 5430 5431 5432 5433 5435 5436 5437 5438 5439 5440 5441 5442 5443 5444 5444 5444 5444 5444 5444 5444 5443 5443
5392 5392 5393 5394 5396 5397 5399 5401 5402 5404 5406 5407 5409 5410 5411 5413 5414 5415 5417 5418 5419 5420 5421 5422 5423 5424 5425 5426 5427 5428 5429 5430 5431 5432 5432 5433 5433 5433 5432 5432 5432 5431 5430
5384 5384 5384 5385 5386 5388 5389 5391 5393 5395 5396 5398 5399 5400 5402 5403 5404 5406 5407 5408 5408 5409 5410 5411 5412 5413 5414 5415 5416 5417 5418 5419 5420 5420 5421 5421 5421 5421 5421 5420 5420 5419 5418
5376 5376 5376 5377 5378 5379 5380 5381 5383 5385 5387 5388 5390 5391 5392 5393 5394 5395 5396 5397 5398 5399 5400 5401 5402 5402 5403 5404 5405 5407 5408 5409 5409 5409 5410 5410 5410 5409 5409 5408 5407 5406 5406
5368 5368 5368 5368 5369 5370 5371 5372 5374 5376 5377 5379 5380 5381 5382 5383 5384 5385 5386 5387 5388 5389 5390 5391 5392 5393 5394 5395 5395 5396 5397 5397 5398 5398 5398 5398 5398 5398 5397 5396 5396 5395 5394
5359 5359 5360 5360 5360 5361 5362 5363 5365 5366 5368 5369 5370 5371 5372 5373 5374 5375 5376 5377 5378 5379 5380 5381 5382 5383 5384 5385 5386 5386 5387 5387 5387 5387 5387 5387 5387 5386 5386 5385 5385 5384 5382
5352 5352 5352 5352 5352 5353 5354 5355 5356 5358 5359 5360 5361 5362 5363 5364 5365 5365 5366 5367 5368 5370 5371 5372 5373 5374 5375 5376 5376 5376 5376 5376 5376 5376 5376 5376 5376 5375 5375 5374 5373 5372 5371